DW4207 Weather Reports


Display with metric or nautical units.
time (UTC)temp
F
wind
direction
speed
MPH
gust
MPH
rain 1hr
in
rain 24hr
in
rain mn
in
humidity
%
barometer
mb
20260509005024 55 202 3.0 6.0 0.00 0.24 0.24 89 1008.8
20260509004003 55 207 3.0 7.0 0.01 0.24 0.24 89 1008.9
20260509003003 55 211 4.0 7.0 0.01 0.24 0.24 89 1008.9
20260509002003 55 193 4.0 11.0 0.01 0.24 0.24 89 1008.8
20260509001003 55 200 4.0 10.0 0.01 0.24 0.24 89 1008.8
20260509000004 55 204 5.0 12.0 0.01 0.24 0.24 89 1008.9
20260508235003 55 200 4.0 10.0 0.03 0.24 0.24 89 1009.1
20260508234003 55 201 3.0 6.0 0.04 0.23 0.23 90 1009.3
20260508233003 55 190 2.0 5.0 0.05 0.23 0.23 90 1009.0
20260508232003 55 197 2.0 5.0 0.06 0.23 0.23 90 1009.1
20260508231024 55 167 4.0 11.0 0.08 0.23 0.23 90 1009.1
20260508230003 55 158 4.0 9.0 0.08 0.23 0.23 90 1009.1
20260508225003 55 163 2.0 5.0 0.08 0.21 0.21 90 1009.2
20260508224003 54 164 1.0 3.0 0.08 0.19 0.19 90 1009.3
20260508223024 54 156 2.0 5.0 0.09 0.18 0.18 89 1009.2
20260508222003 54 159 1.0 4.0 0.10 0.17 0.17 89 1009.4
20260508221003 54 207 2.0 5.0 0.08 0.15 0.15 89 1009.5
20260508220024 55 219 1.0 4.0 0.10 0.15 0.15 88 1009.6
20260508215003 55 229 1.0 5.0 0.10 0.13 0.13 88 1009.6
20260508214003 55 261 1.0 3.0 0.09 0.11 0.11 88 1009.8
20260508213003 55 323 1.0 3.0 0.08 0.09 0.09 88 1009.7
20260508212003 55 337 0.0 2.0 0.07 0.07 0.07 87 1009.6
20260508211003 56 307 1.0 4.0 0.07 0.07 0.07 86 1009.7
20260508210003 56 274 2.0 8.0 0.05 0.05 0.06 85 1009.7
20260508205003 57 345 3.0 9.0 0.03 0.03 0.03 83 1009.8
20260508204003 58 344 3.0 8.0 0.02 0.02 0.02 81 1009.6
20260508203003 60 333 1.0 3.0 0.01 0.01 0.01 78 1009.7
20260508202003 61 318 1.0 4.0 0.00 0.00 0.00 72 1009.4
20260508201003 63 262 0.0 3.0 0.00 0.00 0.00 65 1009.3
20260508200003 62 249 2.0 5.0 0.00 0.00 0.00 64 1009.6
20260508195024 63 238 2.0 5.0 0.00 0.00 0.00 65 1009.7
20260508194003 63 231 2.0 4.0 0.00 0.00 0.00 65 1009.7
20260508193003 64 213 4.0 9.0 0.00 0.00 0.00 60 1009.9
20260508192003 64 211 4.0 8.0 0.00 0.00 0.00 60 1010.0
20260508191003 63 184 4.0 12.0 0.00 0.00 0.00 59 1010.1
20260508190003 64 182 5.0 12.0 0.00 0.00 0.00 59 1010.2
20260508185024 64 205 5.0 10.0 0.00 0.00 0.00 59 1010.3
20260508184003 63 176 5.0 11.0 0.00 0.00 0.00 60 1010.5
20260508183003 63 190 5.0 10.0 0.00 0.00 0.00 60 1010.6
20260508182003 63 194 5.0 13.0 0.00 0.00 0.00 61 1010.7
20260508181003 63 195 5.0 12.0 0.00 0.00 0.00 61 1010.8
20260508180003 62 187 4.0 12.0 0.00 0.00 0.00 59 1010.8
20260508175024 62 179 3.0 9.0 0.00 0.00 0.00 60 1010.8
20260508174024 62 168 4.0 11.0 0.00 0.00 0.00 59 1011.0
20260508173024 63 199 7.0 16.0 0.00 0.00 0.00 57 1011.0
20260508172024 64 210 7.0 17.0 0.00 0.00 0.00 56 1011.0
20260508171003 66 206 7.0 15.0 0.00 0.00 0.00 54 1011.1
20260508170024 65 189 6.0 17.0 0.00 0.00 0.00 55 1011.2
20260508165004 64 217 5.0 13.0 0.00 0.00 0.00 55 1011.5
20260508164003 64 221 8.0 18.0 0.00 0.00 0.00 54 1011.7
20260508163003 66 216 5.0 14.0 0.00 0.00 0.00 54 1011.8
20260508162003 64 229 6.0 14.0 0.00 0.00 0.00 56 1012.0
20260508161024 65 220 6.0 11.0 0.00 0.00 0.00 54 1012.2
20260508160024 64 219 6.0 15.0 0.00 0.00 0.00 60 1012.2
20260508155024 62 221 6.0 11.0 0.00 0.00 0.00 60 1012.3
20260508154003 62 221 5.0 12.0 0.00 0.00 0.00 57 1012.4
20260508153003 62 208 4.0 11.0 0.00 0.00 0.00 60 1012.3
20260508152003 61 196 4.0 13.0 0.00 0.00 0.00 58 1012.4
20260508151003 61 216 6.0 13.0 0.00 0.00 0.00 58 1012.4
20260508150003 61 229 7.0 15.0 0.00 0.00 0.00 59 1012.5
20260508145003 61 214 8.0 16.0 0.00 0.00 0.00 57 1012.5
20260508144003 60 217 7.0 15.0 0.00 0.00 0.00 60 1012.6
20260508143003 60 208 8.0 17.0 0.00 0.00 0.00 58 1012.8
20260508142003 60 223 7.0 14.0 0.00 0.00 0.00 60 1013.0
20260508141003 60 223 7.0 19.0 0.00 0.00 0.00 58 1012.9
20260508140003 58 213 5.0 10.0 0.00 0.00 0.00 60 1013.0
20260508135003 58 222 5.0 12.0 0.00 0.00 0.00 59 1013.1
20260508134003 58 232 4.0 9.0 0.00 0.00 0.00 59 1013.2
20260508133003 58 234 4.0 12.0 0.00 0.00 0.00 60 1013.2
20260508132003 58 222 6.0 13.0 0.00 0.00 0.00 61 1013.2
20260508131003 57 211 4.0 9.0 0.00 0.00 0.00 62 1013.4
20260508130003 56 231 3.0 9.0 0.00 0.00 0.00 62 1013.3
20260508125003 55 226 1.0 4.0 0.00 0.00 0.00 63 1013.3
20260508124003 54 244 2.0 6.0 0.00 0.00 0.00 64 1013.4
20260508123003 52 349 1.0 3.0 0.00 0.00 0.00 65 1013.5
20260508122003 51 0 0.0 0.0 0.00 0.00 0.00 67 1013.4
20260508121003 51 0 0.0 0.0 0.00 0.00 0.00 69 1013.1
20260508120024 50 0 0.0 0.0 0.00 0.00 0.00 73 1013.3
20260508115003 48 0 0.0 0.0 0.00 0.00 0.00 73 1013.3
20260508114003 47 0 0.0 0.0 0.00 0.00 0.00 73 1013.3
20260508113003 47 0 0.0 0.0 0.00 0.00 0.00 74 1013.2
20260508112003 46 0 0.0 0.0 0.00 0.00 0.00 75 1013.1
20260508111003 47 0 0.0 0.0 0.00 0.00 0.00 73 1013.2
20260508110003 48 0 0.0 0.0 0.00 0.00 0.00 69 1013.2
20260508105003 48 225 0.0 2.0 0.00 0.00 0.00 69 1013.1
20260508104003 48 354 2.0 4.0 0.00 0.00 0.00 67 1013.0
20260508103003 49 199 2.0 6.0 0.00 0.00 0.00 65 1012.9
20260508102004 49 186 1.0 4.0 0.00 0.00 0.00 66 1012.7
20260508101004 49 190 1.0 6.0 0.00 0.00 0.00 66 1012.8
20260508100004 50 188 1.0 6.0 0.00 0.00 0.00 66 1012.7
20260508095004 50 193 1.0 4.0 0.00 0.00 0.00 65 1012.8
20260508094025 50 187 2.0 6.0 0.00 0.00 0.00 64 1012.8
20260508093025 50 191 2.0 5.0 0.00 0.00 0.00 64 1012.8
20260508092004 51 193 2.0 7.0 0.00 0.00 0.00 63 1012.8
20260508091025 51 187 2.0 6.0 0.00 0.00 0.00 63 1012.8
20260508090004 51 193 2.0 5.0 0.00 0.00 0.00 62 1012.9
20260508085025 52 181 2.0 7.0 0.00 0.00 0.00 62 1013.0
20260508084004 52 185 2.0 6.0 0.00 0.00 0.00 61 1012.9
20260508083025 53 202 2.0 6.0 0.00 0.00 0.00 61 1013.0
20260508082004 53 210 2.0 7.0 0.00 0.00 0.00 60 1013.2
20260508081004 53 205 4.0 9.0 0.00 0.00 0.00 60 1013.2
20260508080004 53 213 4.0 10.0 0.00 0.00 0.00 60 1013.2
20260508075004 53 217 4.0 10.0 0.00 0.00 0.00 61 1013.4
20260508074025 53 221 5.0 10.0 0.00 0.00 0.00 62 1013.5
20260508073004 53 216 5.0 13.0 0.00 0.00 0.00 61 1013.3
20260508072004 53 215 5.0 12.0 0.00 0.00 0.00 60 1013.3
20260508071004 53 214 5.0 14.0 0.00 0.00 0.00 60 1013.4
20260508070025 53 215 6.0 12.0 0.00 0.00 0.00 60 1013.4
20260508065004 52 211 4.0 9.0 0.00 0.00 0.00 61 1013.3
20260508064025 52 197 5.0 10.0 0.00 0.00 0.00 61 1013.4
20260508063004 52 203 4.0 9.0 0.00 0.00 0.00 61 1013.6
20260508062004 52 202 3.0 8.0 0.00 0.00 0.00 61 1013.6
20260508061004 52 210 4.0 11.0 0.00 0.00 0.00 61 1013.6
20260508060004 52 197 4.0 8.0 0.00 0.00 0.00 61 1013.6
20260508055004 52 199 4.0 9.0 0.00 0.00 0.00 61 1013.7
20260508054004 52 195 3.0 9.0 0.00 0.00 0.00 61 1013.6
20260508053025 52 204 4.0 9.0 0.00 0.00 0.00 62 1013.6
20260508052004 52 202 3.0 7.0 0.00 0.00 0.00 62 1013.6
20260508051025 52 187 3.0 9.0 0.00 0.00 0.00 63 1013.6
20260508050004 52 194 4.0 11.0 0.00 0.00 0.00 64 1013.6
20260508045004 52 197 3.0 6.0 0.00 0.00 0.00 65 1013.8
20260508044004 51 193 3.0 6.0 0.00 0.00 0.00 67 1013.7
20260508043004 51 195 2.0 7.0 0.00 0.00 0.00 69 1013.6
20260508042004 50 208 1.0 6.0 0.00 0.00 0.00 70 1013.6
20260508041004 50 194 1.0 4.0 0.00 0.00 0.00 71 1013.6
20260508040025 51 184 1.0 3.0 0.00 0.00 0.00 71 1013.6
20260508035004 51 197 2.0 5.0 0.00 0.00 0.00 70 1013.5
20260508034025 51 179 1.0 5.0 0.00 0.00 0.00 71 1013.6
20260508033004 51 185 3.0 7.0 0.00 0.00 0.00 72 1013.6
20260508032004 50 181 2.0 6.0 0.00 0.00 0.00 73 1013.6
20260508031025 50 171 2.0 5.0 0.00 0.00 0.00 75 1013.6
20260508030004 50 180 2.0 6.0 0.00 0.00 0.00 75 1013.6
20260508025025 50 164 4.0 8.0 0.00 0.00 0.00 75 1013.4
20260508024004 50 171 2.0 6.0 0.00 0.00 0.00 75 1013.4
20260508023004 49 205 1.0 4.0 0.00 0.00 0.00 76 1013.4
20260508022004 50 177 2.0 4.0 0.00 0.00 0.00 77 1013.3
20260508021025 49 212 0.0 2.0 0.00 0.00 0.00 78 1013.3
20260508020004 50 223 1.0 2.0 0.00 0.00 0.00 78 1013.3
20260508015025 50 210 0.0 2.0 0.00 0.00 0.00 78 1013.2
20260508014004 50 183 0.0 2.0 0.00 0.00 0.00 78 1013.1
20260508013025 50 190 0.0 2.0 0.00 0.00 0.00 77 1013.1
20260508012004 50 171 1.0 3.0 0.00 0.00 0.00 76 1013.1
20260508011004 50 145 1.0 4.0 0.00 0.00 0.00 75 1013.1
20260508010004 50 153 1.0 3.0 0.00 0.00 0.00 75 1012.9